Flag for China Weather past 2 weeks in Zhengzhou, Henan, China

Now
55 °F

Fog.


Feels Like: 53 °F
Forecast: 51 / 59 °F
Wind: 10 mph from North

Location: Zhengzhou Airport

Current Time: Apr 19, 2015 at 1:03:10 AM

Latest Report: Apr 19, 2015 at 12:00 AM


Visibility: 2 mi

Pressure: 29.86 "Hg

Humidity: 88%

Dew point: 52 °F

Location of ZhengzhouLocation

Historic Weather in Zhengzhou — Graph

°F

Zhengzhou temperature yesterday

Maximum temperature yesterday: 63 °F (at 12:00 PM)
Minimum temperature yesterday: 57 °F (at 6:00 PM)
Average temperature yesterday: 59 °F

Past Weeks' High & Low Weather Summary

 TemperatureHumidityPressure
High82 °F (Apr 15, 2:00 PM)94% (Apr 4, 5:00 AM)30.51 "Hg (Apr 4, 5:00 AM)
Low36 °F (Apr 8, 4:00 AM)11% (Apr 12, 6:00 PM)29.62 "Hg (Apr 15, 3:00 PM)
Average56 °F57%30.06 "Hg
* Reported Midnight between Apr 3 and Apr 4 — Midnight between Apr 18 and Apr 19, Zhengzhou, Weather by CustomWeather, © 2015

Note: Actual official high and low records may vary slightly from our data, if they occured in-between our weather recording intervals... More about our weather records

Advertising

Zhengzhou weather history for previous 24 hours

 ConditionsComfort  
Time TempWeatherWind HumidityBarometerVisibility
12:00 AM
Sun, Apr 19
55 °FFog.10 mph88%29.86 "Hg2 mi
11:00 PM
Sat, Apr 18
57 °FLight rain. Fog.15 mph82%29.86 "Hg1 mi
10:00 PM57 °FLight rain. Fog.13 mph88%29.83 "Hg1 mi
9:00 PM57 °FLight rain. Fog.13 mph94%29.83 "Hg1 mi
8:00 PM57 °FLight rain. Fog.8 mph94%29.80 "Hg1 mi
7:00 PM59 °FLight rain. Fog.8 mph88%29.77 "Hg1 mi
6:00 PM57 °FLight rain. Fog.8 mph94%29.77 "Hg1 mi
5:00 PM59 °FLight rain. Fog.8 mph88%29.74 "Hg1 mi
4:00 PM59 °FLight rain. Fog.3 mph82%29.71 "Hg2 mi
3:00 PM63 °FLight rain. Overcast.8 mph64%29.71 "Hg2 mi
2:00 PM63 °FLight rain. Overcast.8 mph64%29.71 "Hg2 mi
1:00 PM63 °FLight rain. Overcast.10 mph64%29.74 "Hg2 mi
12:00 PM63 °FPartly sunny.8 mph64%29.77 "Hg2 mi
11:00 AM61 °FHaze.6 mph68%29.80 "Hg2 mi
10:00 AM61 °FHaze.3 mph63%29.80 "Hg2 mi
9:00 AM59 °FHaze.3 mph68%29.77 "Hg2 mi
8:00 AM59 °FHaze.6 mph72%29.77 "Hg2 mi
7:00 AM59 °FFog.3 mph72%29.77 "Hg2 mi
6:00 AM59 °FFog.3 mph77%29.74 "Hg2 mi
5:00 AM59 °FFog.3 mph77%29.74 "Hg2 mi
4:00 AM59 °FFog.1 mph77%29.74 "Hg2 mi
3:00 AM59 °FFog.1 mph77%29.74 "Hg2 mi
2:00 AM59 °FFog.3 mph77%29.77 "Hg2 mi
1:00 AM59 °FFog.3 mph77%29.80 "Hg2 mi
Weather by CustomWeather, © 2015

See weather overviewHow to use our weather pages